This demonstration page uses our WeatherBlox Daily Observations layout. Learn more.

Left ArrowRight Arrow

36.19886, -115.1175

Hourly Observations for May 22, 2021

Temp ( °F °C ) Dew Point ( °F °C ) Humidity (%) Winds ( mph kmh ) Pressure ( in mb ) Visibility ( mi km ) Precip ( " mm )
12:53 am 00:53 Clear with Blowing Dust 58 14.4 22 -5.6 25 25 NW 5 7 29.90 1013 10 16 N/A
1:53 am 01:53 Clear with Blowing Dust 56 13.3 24 -4.4 29 29 NNW 10 17 29.89 1012 10 16 N/A
2:53 am 02:53 Partly Cloudy with Blowing Dust 57 13.9 26 -3.3 30 30 NNW 13 20 29.88 1012 10 16 N/A
3:53 am 03:53 Partly Cloudy with Blowing Dust 55 12.8 26 -3.3 33 33 NNW 7 11 29.88 1012 10 16 N/A
4:53 am 04:53 Clear with Blowing Dust 54 12.2 27 -2.8 35 35 NNW 9 15 29.89 1012 10 16 N/A
5:53 am 05:53 Sunny with Blowing Dust 53 11.7 28 -2.2 38 38 NNW 10 17 29.91 1013 10 16 N/A
6:53 am 06:53 Sunny with Blowing Dust 56 13.3 29 -1.7 36 36 NNW 12 19 29.91 1013 10 16 N/A
7:53 am 07:53 Sunny with Blowing Dust 59 15 26 -3.3 28 28 WNW 10 17 29.92 1013 10 16 N/A
8:53 am 08:53 Sunny with Blowing Dust 63 17.2 28 -2.2 27 27 N 5 7 29.92 1013 10 16 N/A
9:53 am 09:53 Sunny with Blowing Dust 66 18.9 24 -4.4 20 20 NNE 5 7 29.91 1013 10 16 N/A
10:53 am 10:53 Sunny with Blowing Dust 68 20 20 -6.7 16 16 N 7 11 29.92 1013 10 16 N/A
11:48 am 11:48 Sunny with Blowing Dust 70 21 27 -3 20 20 W 22 35 29.83 1010 10 16 N/A
11:53 am 11:53 Sunny with Blowing Dust 69 20.6 27 -2.8 21 21 W 22 35 29.92 1013 10 16 N/A
12:53 pm 12:53 Sunny with Blowing Dust 70 21.1 21 -6.1 16 16 W 16 26 29.92 1013 10 16 N/A
1:53 pm 13:53 Sunny with Blowing Dust 69 20.6 21 -6.1 16 16 NW 16 26 29.92 1013 10 16 N/A
2:53 pm 14:53 Sunny with Blowing Dust 69 20.6 22 -5.6 17 17 NNW 10 17 29.91 1013 10 16 N/A
3:53 pm 15:53 Partly Cloudy with Blowing Dust 69 20.6 26 -3.3 20 20 NW 16 26 29.90 1013 10 16 N/A
4:51 pm 16:51 Cloudy with Blowing Dust 68 20 27 -3 21 21 N 13 20 29.80 1009 10 16 N/A
4:53 pm 16:53 Cloudy with Blowing Dust 68 20 26 -3.3 21 21 NNW 13 20 29.91 1013 10 16 N/A
5:53 pm 17:53 Sunny 65 18.3 33 0.6 31 31 NW 23 37 29.93 1014 10 16 N/A
6:53 pm 18:53 Mostly Cloudy 67 19.4 30 -1.1 25 25 NW 10 17 29.92 1013 10 16 N/A
7:53 pm 19:53 Clear 63 17.2 34 1.1 34 34 NNW 18 30 29.94 1014 10 16 N/A
8:53 pm 20:53 Clear 62 16.7 35 1.7 37 37 NNW 18 30 29.95 1014 10 16 N/A
9:53 pm 21:53 Clear 61 16.1 36 2.2 39 39 NW 16 26 29.96 1014 10 16 N/A
10:53 pm 22:53 Clear 61 16.1 35 1.7 38 38 NW 15 24 29.96 1015 10 16 N/A
11:53 pm 23:53 Clear 60 15.6 35 1.7 39 39 WNW 14 22 29.98 1015 10 16 N/A

Powered by AerisWeather